Regional Weather Roundup
Issued by NWS Northern Indiana

Home | Current Version | Previous Version | Text Only | Print | Product List | Glossary Off
Versions: 1 2 3 4 5 6 7 8 9 10 11 12 13 14 15 16 17 18 19 20 21 22 23 24 25 26 27 28 29 30 31 32 33 34 35 36 37 38 39 40 41 42 43 44 45 46 47 48 49 50

000
ASUS43 KIWX 282110
RWRIWX

KIWX WEATHER ROUNDUP
NATIONAL WEATHER SERVICE NORTHERN INDIANA
400 PM EST WED JAN 28 2015

NOTE: "FAIR" INDICATES FEW OR NO CLOUDS BELOW 12,000 FEET WITH NO
SIGNIFICANT WEATHER AND/OR OBSTRUCTIONS TO VISIBILITY.

* THESE STATIONS ARE NOT UNDER NWS QUALITY CONTROL. THEY ALSO MAY NOT
  REPORT WEATHER SUCH AS PRECIPITATION OR FOG.

INZ001>027-282200-
NORTHERN INDIANA

CITY           SKY/WX    TMP DP  RH WIND       PRES   REMARKS
GARY*          PTSUNNY   36  18  48 SE14G25   30.14F
VALPARAISO     PTSUNNY   32  19  58 SE10      30.15F WCI  24
MICHIGAN CITY* PTSUNNY   32  12  43 S13G20    30.16F WCI  22
LAPORTE*       PTSUNNY   33  18  53 S9        30.17F WCI  25
KNOX*          PTSUNNY   32   2  28 SE15      30.17F WCI  21
SOUTH BEND     PTSUNNY   31  14  49 SE16      30.18F WCI  20
GOSHEN         PTSUNNY   30   9  41 SE14      30.20F WCI  19
MONTICELLO*    MOSUNNY   33  20  58 SE8       30.17F WCI  26
LOGANSPORT*    MOSUNNY   32  21  64 SE9       30.20F WCI  24
ROCHESTER*     MOSUNNY   32  21  64 SE10      30.19F WCI  24
WARSAW*        MOSUNNY   30  14  51 SE6       30.21S WCI  24
ANGOLA*        SUNNY     25   9  50 SE8       30.21F WCI  16
FORT WAYNE     PTSUNNY   27  15  61 SE9       30.25S WCI  18
HUNTINGTON*    MOSUNNY   29  11  47 S8        30.23R WCI  21
PERU/GRISSOM   MOSUNNY   31  21  65 SE12      30.19F WCI  22
MARION*        SUNNY     31  17  56 SE7       30.22S WCI  24

$$
INZ028>050-282200-
CENTRAL INDIANA

CITY           SKY/WX    TMP DP  RH WIND       PRES   REMARKS
LAFAYETTE      MOSUNNY   37  19  48 SE13      30.17F
KOKOMO*        MOSUNNY   32  19  59 SE14      30.20F WCI  22
MUNCIE*        SUNNY     31  16  54 S12       30.23S WCI  22
INDIANAPOLIS   PTSUNNY   34  15  46 SE13      30.19F WCI  25

$$
MIZ043>046-050>051-056>058-064>065-071>073-077>080-282200-
SOUTHWEST LOWER MICHIGAN

CITY           SKY/WX    TMP DP  RH WIND       PRES   REMARKS
BATTLE CREEK   PTSUNNY   30  10  43 S15       30.19F WCI  19
BENTON HARBOR  PTSUNNY   31  12  45 SE12G21   30.16F WCI  22
COLDWATER*     MOSUNNY   27   6  41 SE7       30.21F WCI  19
HILLSDALE*     PTSUNNY   26   8  47 CALM      30.21F
HOLLAND        PTSUNNY   33   9  36 S13       30.17F WCI  24
GRAND RAPIDS   CLOUDY    31  10  41 S10       30.18F WCI  22
KALAMAZOO      PTSUNNY   30  10  43 S10       30.19F WCI  21
STURGIS*       MOSUNNY   27   9  46 SE13      30.20F WCI  16
THREE RIVERS*  FAIR      29  10  44 S8        30.21F WCI  21

$$
OHZ001>008-015>018-024>025-282200-
NORTHWEST OHIO

CITY           SKY/WX    TMP DP  RH WIND       PRES   REMARKS
WAUSEON*       FAIR      25  14  63 S8        30.26F WCI  16
DEFIANCE       MOSUNNY   26  12  55 S8        30.27F WCI  18
FINDLAY        PTSUNNY   25  14  63 SE9       30.27S WCI  15
TOLEDO EXPRESS PTSUNNY   24  11  57 S6        30.27F WCI  17
TOLEDO METCALF MOSUNNY   25  12  58 S7        30.30F WCI  17
LIMA           PTSUNNY   27  15  61 SE8       30.25F WCI  19

$$
AND FOR LAKE MICHIGAN COASTAL AND OPEN LAKE BUOY OBSERVATIONS

STATION/POSITION TEMP    WIND        PRES    VSBY  WAVE
                 AIR SEA DIR/SP/G                  HT/PER
                 (F)     (DEG/KT/KT) (MB)    (MI)  (FT/S)
CALUMET HARBOR    33     140/ 10/ 15   N/A
MICHIGAN CITY     31     130/ 16/ 21   N/A
SAINT JOSEPH      32     140/  6/ 10 1021.7R

$$
&&



USA.gov is the U.S. government's official web portal to all federal, state and local government web resources and services.